Location: Poprad
(49.0500°N, 20.3000°E)
Time: 08:57:31
(UTC+02:00)

ISS - Pass Details

Date: 25 March 2019
Orbit: 408 x 410 km, 51.6° (Epoch: 22 April)

Event Time Altitude Azimuth Distance (km) Brightness Sun altitude
Rises 18:37:53 0° 231° (SW) 2,327 0.6 -7.2°
Reaches altitude 10° 18:40:00 10° 225° (SW) 1,468 -0.5 -7.5°
Maximum altitude 18:43:11 46° 151° (SSE) 556 -3.4 -8.0°
Drops below altitude 10° 18:46:22 10° 76° (ENE) 1,474 -1.5 -8.6°
Enters shadow 18:46:27 - 76° (ENE) 1,510 -1.5 -8.6°
